This demonstration page uses our WeatherBlox Daily Observations layout. Learn more.

Left ArrowRight Arrow

38.20091, -84.87328

Hourly Observations for September 3, 2021

Temp ( °F °C ) Dew Point ( °F °C ) Humidity (%) Winds ( mph kmh ) Pressure ( in mb ) Visibility ( mi km ) Precip ( " mm )
12:53 am 00:53 Clear 64 17.8 57 13.9 78 78 Calm 30.08 1019 10 16 0.00 0.00
1:53 am 01:53 Clear 63 17.2 56 13.3 78 78 Calm 30.07 1018 10 16 0.00 0.00
2:53 am 02:53 Clear 60 15.6 57 13.9 90 90 Calm 30.06 1018 10 16 0.00 0.00
3:53 am 03:53 Clear 59 15 56 13.3 90 90 Calm 30.07 1018 10 16 0.00 0.00
4:53 am 04:53 Clear 59 15 57 13.9 93 93 Calm 30.07 1018 10 16 0.00 0.00
5:53 am 05:53 Clear 57 13.9 55 12.8 93 93 Calm 30.06 1018 10 16 0.00 0.00
6:53 am 06:53 Clear 56 13.3 55 12.8 97 97 Calm 30.08 1019 10 16 0.00 0.00
7:53 am 07:53 Sunny 58 14.4 56 13.3 93 93 Calm 30.10 1019 10 16 0.00 0.00
8:53 am 08:53 Sunny 62 16.7 57 13.9 84 84 ENE 6 9 30.11 1020 10 16 0.00 0.00
9:53 am 09:53 Sunny 67 19.4 58 14.4 73 73 ENE 6 9 30.12 1020 10 16 0.00 0.00
10:53 am 10:53 Sunny 73 22.8 57 13.9 57 57 E 8 13 30.11 1020 10 16 0.00 0.00
11:53 am 11:53 Sunny 77 25 57 13.9 50 50 E 9 15 30.11 1020 10 16 0.00 0.00
12:53 pm 12:53 Sunny 79 26.1 57 13.9 47 47 undefined N/A 30.10 1019 10 16 0.00 0.00
1:53 pm 13:53 Sunny 79 26.1 56 13.3 45 45 VRB 5 7 30.09 1019 10 16 0.00 0.00
2:53 pm 14:53 Sunny 78 25.6 56 13.3 47 47 ENE 9 15 30.08 1019 10 16 0.00 0.00
3:53 pm 15:53 Sunny 81 27.2 56 13.3 42 42 ENE 6 9 30.06 1018 10 16 0.00 0.00
4:53 pm 16:53 Sunny 79 26.1 54 12.2 42 42 Calm 30.04 1017 10 16 0.00 0.00
5:53 pm 17:53 Sunny 78 25.6 57 13.9 48 48 NE 6 9 30.04 1017 10 16 0.00 0.00
6:53 pm 18:53 Sunny 76 24.4 56 13.3 50 50 ENE 6 9 30.04 1017 10 16 0.00 0.00
7:53 pm 19:53 Sunny 74 23.3 57 13.9 56 56 ENE 6 9 30.04 1017 10 16 0.00 0.00
8:53 pm 20:53 Clear 71 21.7 57 13.9 61 61 E 5 7 30.02 1017 10 16 0.00 0.00
9:53 pm 21:53 Clear 70 21.1 59 15 68 68 NNW 5 7 30.03 1017 10 16 0.00 0.00
10:53 pm 22:53 Clear 67 19.4 61 16.1 81 81 Calm 30.03 1017 10 16 0.00 0.00
11:53 pm 23:53 Clear 67 19.4 61 16.1 81 81 E 3 6 30.02 1017 10 16 0.00 0.00

Powered by AerisWeather